OBJECT E

基本信息
目录编号:
69542
目录名称:
OBJECT E
国际标识:
2026-134E
轨道中心:
EARTH
物体状态:
在轨
发射日期:
2026-06-15 UTC
国别:
中国 (CN)
轨道信息
数据来源: 国际轨道数据
星历时间: 2026-09-12T11:28:27+0800
半长轴: 6915.895km
偏心率: 0.0017176
轨道倾角: 97.698°
近地点辐角: 335.244°
升交点赤经: 325.667°
平近点角: 24.796°
近地点: 525.879km
远地点: 549.637km
周期: 95.396分钟
每日圈数: 15.094899
详细信息
发射场:
JSC
轨道高度:
LEO
数据来源:
AOE Working Group
参考系:
TEME
时间系统:
UTC
历元类型:
SGP4
2D轨道图
3D轨道图
轨道高度分析图
轨道倾角分析图
轨道综合分析图
查看轨道综合分析图